GEFSNE_500_meanwind_102.txt.gz
Wind_Speed
2 3 5 8 10 13 14 16 17 18 19 21 23 24 25 25 25 25 24 24 24 24 24 23 24 24 24 24 25 25 25 25 24 24 23 23 23 23
2 2 4 7 9 12 13 15 16 17 19 21 22 23 25 25 25 25 25 25 25 25 25 25 24 24 25 24 24 25 26 25 25 25 25 25 26 26
4 3 4 6 9 10 12 13 15 17 19 19 21 22 23 24 25 25 26 26 26 26 26 25 25 25 25 26 26 25 26 27 27 27 27 27 27 27
5 4 5 7 8 9 11 12 14 15 17 18 20 21 23 24 24 24 25 25 25 26 26 26 26 26 27 27 27 27 27 27 28 28 28 28 28 29
6 6 6 7 9 10 11 12 13 14 16 17 18 19 21 23 23 24 24 24 25 25 26 26 27 27 27 27 28 28 28 28 28 28 29 29 29 30
8 7 7 8 9 10 11 12 13 14 15 16 17 18 18 21 22 23 23 24 25 25 26 26 27 28 28 28 28 28 28 28 28 29 29 30 30 31
10 10 9 9 9 10 11 12 14 14 15 17 17 18 18 19 21 23 24 25 26 26 26 26 27 27 28 27 27 28 29 29 29 29 30 30 31 31
12 12 11 11 11 11 12 13 14 15 16 17 18 19 20 19 21 22 24 24 25 26 27 27 28 28 28 28 28 28 29 29 30 30 30 31 31 32
15 14 14 13 14 14 13 14 15 16 17 17 18 19 20 21 21 22 23 24 24 26 26 27 27 27 27 28 28 29 29 30 30 31 32 32 32 33
18 17 17 16 16 16 16 16 16 16 17 18 18 19 20 21 21 21 22 23 23 24 25 26 26 27 27 27 27 28 30 30 31 31 31 32 32 33
22 21 20 19 19 19 19 18 18 18 18 18 18 19 20 20 21 22 22 22 22 23 24 24 25 25 25 26 27 27 27 28 29 30 30 31 32 33
25 24 23 22 21 21 21 21 21 20 20 20 20 20 20 21 21 22 22 22 22 22 23 23 23 24 24 24 25 25 26 26 27 28 28 30 31 32
29 28 27 26 25 24 23 23 23 22 22 21 21 20 20 21 21 21 21 21 21 22 22 23 23 23 24 24 24 25 25 26 27 28 29 30 31 32
32 31 30 30 29 27 26 25 25 24 24 23 23 22 22 22 21 21 21 21 22 22 22 23 23 23 23 23 24 24 25 26 27 28 29 31 32 33
36 35 34 33 32 31 29 28 27 26 26 25 25 24 23 23 23 22 22 22 22 23 23 24 23 24 24 24 25 25 26 27 28 29 30 31 32 33
40 39 38 37 36 35 33 31 30 29 28 28 27 27 26 25 24 24 24 24 24 24 24 24 25 25 25 26 27 27 28 29 30 31 31 32 34 35
44 43 42 40 40 38 37 35 34 32 31 31 30 29 28 27 27 26 25 25 26 26 26 26 26 27 28 28 29 29 30 31 32 33 34 35 36 37
48 47 45 43 42 41 40 38 37 36 34 33 32 31 30 29 29 28 27 27 27 27 28 28 28 28 29 29 30 31 31 32 33 34 35 36 37 39
51 49 47 46 44 43 42 41 39 38 37 36 35 34 33 32 31 30 30 29 29 29 29 29 29 29 30 30 31 32 32 33 34 35 36 37 38 40
52 50 49 48 47 46 44 43 42 41 39 38 37 36 35 34 33 32 32 31 31 30 30 30 30 30 31 31 32 33 34 35 36 36 37 38 40 41
53 52 50 49 48 48 46 45 44 43 41 40 39 38 37 36 35 34 33 33 32 32 31 31 31 31 32 32 33 34 35 36 37 37 39 40 41 42
54 53 52 51 49 49 48 46 45 44 43 42 40 39 38 37 36 35 34 33 33 33 32 32 32 32 33 33 34 34 35 36 37 38 40 41 42 43
55 54 54 53 51 50 49 48 46 45 44 43 42 41 40 38 37 36 35 34 34 33 33 33 33 33 33 34 34 35 36 37 38 39 40 41 42 43

GEFSNE_500_meanwind_108.txt.gz
Wind_Speed
9 7 5 4 3 4 6 7 9 12 14 16 18 19 20 22 22 22 23 23 23 23 24 23 23 24 24 24 24 25 25 24 23 23 22 21 21 20
10 8 6 5 4 5 6 7 9 11 13 15 17 19 20 21 22 22 22 23 23 24 24 23 23 23 24 25 24 25 25 25 24 24 23 23 23 22
11 9 8 7 6 5 6 8 9 11 13 14 16 18 19 21 21 22 23 23 23 23 23 23 24 23 23 24 25 26 26 26 26 26 25 25 24 24
12 10 9 9 8 8 8 9 10 11 13 14 15 17 18 19 20 22 23 24 24 24 23 24 24 25 25 25 25 25 26 26 27 27 26 25 25 25
13 12 11 10 10 10 10 11 11 12 13 14 15 16 18 19 20 20 22 23 24 24 24 24 24 24 25 26 26 26 26 27 27 26 26 26 25 25
14 13 12 12 12 12 11 12 13 13 15 15 16 17 18 19 20 20 21 22 23 24 25 25 25 25 25 26 26 27 27 27 27 27 27 27 27 27
17 15 14 14 13 13 13 13 14 15 15 16 17 18 18 19 20 22 22 23 24 25 25 26 26 27 27 27 28 28 28 28 28 28 29 29 29 28
19 18 17 16 16 15 15 15 16 16 16 16 17 19 19 20 21 22 23 24 24 25 26 26 27 27 27 27 28 28 29 29 29 29 29 29 30 29
23 22 20 19 19 19 18 17 17 18 19 19 19 19 20 21 22 23 23 23 24 24 26 26 27 27 27 28 28 29 29 29 29 29 29 29 29 29
26 25 24 23 22 22 22 21 20 20 21 21 21 22 22 22 23 24 24 25 25 25 26 26 27 27 28 28 29 29 29 29 30 30 30 30 30 30
29 29 28 27 26 26 25 25 24 24 23 24 24 24 24 24 25 25 26 26 26 26 27 27 28 28 28 28 28 29 29 29 29 29 30 29 30 30
33 33 32 31 30 29 29 28 27 27 26 26 26 26 26 27 27 27 27 27 27 27 28 28 29 29 28 29 28 28 28 29 28 29 29 29 29 29
37 36 36 35 35 34 33 32 31 31 30 29 29 28 27 27 28 28 28 28 28 28 28 28 28 28 27 27 27 27 27 27 27 28 28 28 28 28
41 40 39 39 38 37 36 35 35 34 33 32 32 31 30 29 29 29 29 29 29 28 27 27 27 28 28 27 27 27 27 27 27 27 27 28 28 29
45 44 43 42 41 41 40 39 38 37 36 35 34 34 33 32 31 31 30 29 28 28 27 28 28 28 28 28 27 27 27 27 27 27 28 28 28 28
47 47 46 44 44 44 43 42 41 40 39 37 36 35 35 34 33 32 32 31 30 30 29 29 29 29 28 28 27 27 27 27 28 28 28 28 28 28
49 49 47 47 46 46 45 44 44 43 42 40 39 38 37 36 35 34 33 33 32 31 30 30 30 29 29 29 28 28 27 27 28 28 28 28 29 29
51 50 48 47 47 47 46 46 45 45 44 43 42 41 39 38 37 36 35 34 33 32 31 31 30 30 29 29 29 28 28 27 28 28 29 29 30 30
51 50 50 49 48 48 48 47 47 47 47 45 44 42 41 40 39 38 37 36 35 34 33 33 32 31 31 30 29 29 29 29 29 29 30 30 30 31
51 51 50 50 49 49 49 48 48 49 49 48 46 44 43 42 41 39 38 38 37 36 35 34 34 33 32 31 31 31 31 30 30 30 30 31 31 32
50 51 51 51 51 50 51 50 49 49 49 50 48 46 45 43 42 41 40 38 37 37 36 35 34 34 33 33 32 32 32 31 31 31 31 31 32 32
49 50 51 51 51 51 50 50 49 49 49 50 49 48 46 45 44 42 41 40 39 38 37 36 36 35 34 33 33 32 32 32 31 31 31 31 32 33
49 49 50 49 49 49 49 49 49 49 49 50 50 49 48 47 45 44 43 41 40 39 38 37 36 36 35 34 33 32 32 32 31 31 32 32 33 34

GEFSNE_500_meanwind_114.txt.gz
Wind_Speed
11 9 7 5 3 2 2 4 6 9 10 13 15 17 18 19 21 23 24 24 24 25 25 26 26 26 26 26 26 26 26 26 25 24 23 22 22 21
11 9 7 6 4 3 3 4 6 8 10 12 14 16 18 19 20 22 24 24 25 26 26 26 26 26 26 26 26 26 26 26 26 26 25 25 24 24
12 10 8 7 6 5 4 4 6 7 9 11 13 15 17 19 21 22 24 24 25 26 27 27 26 26 26 27 27 27 27 27 27 27 27 26 26 26
13 12 10 9 8 7 6 7 7 8 10 11 13 15 17 19 21 22 24 25 25 26 27 27 27 27 27 27 27 28 28 28 27 28 28 28 28 28
14 14 13 11 10 9 9 8 9 10 11 12 14 15 17 19 20 22 24 25 25 26 27 27 28 28 27 28 29 29 29 29 29 29 29 29 29 29
16 16 15 14 13 13 12 12 11 12 13 14 15 16 18 19 20 22 24 25 25 25 27 28 29 29 29 29 29 30 30 30 30 30 30 30 31 31
19 19 18 16 16 15 15 15 15 15 15 16 17 18 19 21 21 22 24 26 26 26 27 29 29 30 31 31 31 31 31 30 30 31 31 31 32 32
22 22 21 20 19 18 18 17 18 18 18 19 19 20 21 22 23 24 25 26 27 28 28 29 30 30 31 31 32 32 32 32 32 32 32 32 32 32
25 24 24 24 23 22 22 21 21 21 21 22 22 23 23 24 25 26 26 28 28 29 30 30 31 31 32 32 33 33 33 33 33 33 33 33 33 33
28 27 26 26 26 26 25 26 26 25 24 24 25 26 26 27 27 28 29 29 29 30 31 31 32 32 33 33 33 34 34 34 34 34 34 34 34 34
31 31 30 30 30 30 29 29 29 30 29 28 28 28 29 30 30 31 32 32 32 33 33 33 33 33 34 34 34 34 34 34 35 34 34 35 35 35
34 34 34 34 34 34 33 33 33 33 33 32 32 32 32 33 34 34 34 34 34 35 36 35 35 35 35 35 35 35 36 35 35 35 35 36 36 36
37 37 37 37 38 38 37 37 36 37 37 36 36 36 36 36 36 37 37 37 37 36 37 38 37 37 36 36 36 37 37 37 37 37 37 36 36 36
39 39 40 41 41 41 41 41 41 41 40 40 39 39 39 40 40 40 40 40 40 39 40 40 39 39 39 39 39 39 39 39 39 38 38 38 37 37
43 43 43 44 44 44 45 45 44 45 44 44 43 43 42 43 44 44 42 42 42 42 43 42 42 41 42 41 41 41 41 40 40 40 40 39 38 38
47 47 47 47 47 47 47 48 48 48 47 47 47 46 45 45 45 46 45 45 44 44 44 44 44 43 43 43 43 42 43 43 42 41 41 40 39 38
51 51 52 51 51 49 49 50 50 51 50 50 49 48 47 48 48 48 48 47 46 45 45 45 45 45 44 44 43 43 43 42 41 41 41 41 39 38
55 55 55 55 53 52 51 52 53 53 52 52 51 51 50 50 50 50 49 49 48 47 46 46 46 46 46 46 44 43 42 42 41 41 40 40 39 39
58 57 57 57 55 54 53 53 54 54 54 54 53 53 53 52 52 52 51 51 50 49 48 47 47 47 47 46 44 44 43 42 42 41 41 40 39 39
61 59 58 58 56 54 54 55 55 55 55 54 54 54 54 54 54 54 53 53 52 51 50 49 48 47 46 45 45 45 44 43 43 42 42 41 40 39
62 60 59 58 57 56 55 56 55 54 54 53 53 53 53 53 53 53 53 53 52 51 50 49 48 47 47 47 46 45 44 43 42 42 41 41 40 39
63 61 59 59 58 57 55 55 54 53 52 52 52 52 52 53 53 51 51 52 52 50 49 49 48 47 47 46 45 44 43 43 42 42 41 40 39 39
63 62 60 59 58 56 54 52 52 51 50 51 50 50 50 51 52 51 49 50 50 49 48 48 48 48 46 46 45 45 44 43 42 42 41 40 40 40

GEFSNE_500_meanwind_120.txt.gz
Wind_Speed
14 13 12 11 10 8 6 4 2 3 5 7 10 11 14 16 18 20 22 23 24 24 24 24 25 25 26 28 28 28 29 29 28 27 26 25 24 24
14 13 12 12 11 9 7 6 5 4 5 7 9 11 12 15 17 20 21 23 24 25 24 25 25 25 26 28 29 29 29 30 29 29 28 28 27 27
14 14 13 12 12 11 10 9 8 7 7 8 9 11 13 14 17 19 21 23 25 26 26 26 27 27 27 28 29 30 30 30 30 30 29 29 29 29
15 14 14 14 13 12 11 10 10 10 9 9 10 12 13 14 16 18 21 23 25 26 27 27 28 28 29 30 30 31 32 31 31 31 30 30 30 30
16 16 15 15 15 14 14 13 12 12 12 12 12 13 14 15 17 18 20 23 24 26 28 28 29 30 30 30 31 32 32 32 32 32 32 32 32 32
17 17 17 17 16 16 16 15 15 14 14 14 14 15 16 17 18 19 20 22 25 26 28 28 30 30 31 32 32 32 33 33 34 34 33 33 33 33
19 19 19 19 18 18 18 18 18 17 17 17 18 18 18 19 20 21 22 23 25 26 27 28 30 31 32 32 33 33 33 33 34 35 35 35 35 34
21 21 21 22 22 21 21 21 21 21 20 20 21 20 20 21 22 23 24 25 26 28 29 29 30 30 31 32 32 33 34 35 35 35 35 35 36 36
24 24 25 25 25 25 25 24 24 24 23 23 23 24 24 24 24 25 26 26 27 29 31 31 32 33 33 33 34 34 34 35 35 36 36 36 36 37
28 28 28 29 29 29 29 28 27 27 27 27 27 28 28 27 28 28 29 29 30 31 32 33 34 34 34 35 35 36 36 36 37 37 37 38 38 39
32 32 32 33 33 33 33 31 31 31 30 30 31 31 32 32 32 32 32 33 33 34 35 35 35 36 36 36 37 38 38 38 38 38 39 39 39 40
35 36 36 37 37 36 36 34 33 33 34 33 34 34 35 35 35 35 36 36 36 36 37 38 38 39 39 39 39 39 39 40 40 41 42 41 41 41
38 38 39 39 39 38 37 36 36 36 37 37 36 37 38 38 38 38 39 39 39 39 40 41 42 42 42 42 42 42 42 42 42 42 43 43 43 43
40 41 41 41 41 40 40 39 39 39 39 39 40 40 40 41 41 42 42 43 43 43 43 44 44 45 45 45 45 45 45 45 45 44 45 45 45 44
42 42 43 43 43 43 43 43 43 43 42 42 43 43 44 45 45 45 46 47 47 47 47 47 48 48 48 48 48 48 48 48 48 48 48 47 47 46
43 44 44 45 45 46 45 45 45 45 45 45 46 46 47 48 49 49 49 50 50 50 50 51 52 51 51 51 51 51 51 51 51 51 50 50 49 48
45 46 47 47 48 48 47 47 48 48 48 49 50 49 50 52 53 53 53 53 54 53 53 53 53 53 53 53 53 53 53 52 52 52 52 51 50 50
48 49 49 50 50 50 50 51 51 51 52 53 53 53 54 54 55 56 55 56 56 56 56 56 55 55 55 55 55 54 54 53 53 53 53 53 52 51
51 52 53 53 54 54 54 54 55 55 56 56 56 57 57 57 57 58 57 57 57 57 56 56 56 55 56 56 54 55 54 54 54 54 54 54 53 52
54 55 56 57 57 58 58 58 59 59 59 58 58 59 59 58 58 59 58 58 57 57 56 55 55 55 56 56 55 54 54 53 53 53 53 53 53 53
57 58 59 61 61 61 61 62 62 61 60 60 60 60 60 59 58 58 58 57 56 55 54 53 54 54 54 55 55 54 53 52 52 52 52 53 53 52
60 61 62 63 64 64 64 64 63 62 61 61 61 60 59 58 57 56 55 54 53 53 52 51 52 53 53 52 52 52 51 51 50 50 51 52 52 51
63 64 65 66 66 66 65 64 63 62 61 60 59 58 57 56 55 54 53 52 51 51 50 50 50 52 52 51 51 51 50 50 49 48 49 49 49 48

GEFSNE_500_meanwind_126.txt.gz
Wind_Speed
13 13 12 11 10 9 7 5 4 2 2 3 5 7 9 11 13 15 17 19 20 22 23 24 24 24 25 25 26 26 26 26 26 26 26 26 26 25
13 12 11 11 10 9 8 7 5 4 4 4 5 6 8 10 12 14 16 18 20 22 23 24 25 25 26 26 27 28 28 28 28 28 28 28 28 28
12 12 11 11 10 10 9 8 7 6 5 6 7 7 8 10 12 13 15 17 19 21 23 24 26 26 26 27 28 29 29 30 30 30 30 30 30 30
12 12 11 11 11 11 10 9 9 9 8 8 8 9 10 11 12 13 14 16 18 21 23 24 26 27 27 28 28 30 30 31 32 32 32 32 32 32
12 12 11 11 12 12 12 12 11 11 11 10 11 11 12 13 14 15 16 17 18 20 22 23 25 27 27 28 29 30 31 31 32 33 34 34 34 34
12 12 12 13 13 13 14 14 14 14 14 13 13 14 15 16 16 17 18 19 20 21 22 23 25 26 28 28 29 30 30 31 32 33 34 35 35 35
14 14 14 15 16 16 16 17 17 17 17 17 17 17 18 18 19 19 20 21 22 23 24 25 26 27 29 29 30 31 31 31 33 34 34 35 36 36
17 17 17 18 18 19 19 20 20 21 21 21 21 21 21 22 22 23 23 24 24 25 26 27 28 29 30 31 31 32 32 33 34 34 34 35 36 36
20 20 21 22 22 23 23 24 24 24 24 24 25 25 25 26 26 26 27 27 27 28 29 29 31 32 32 33 34 34 34 34 35 36 37 37 38 38
23 23 24 25 26 26 27 27 27 27 27 27 28 28 29 30 29 29 30 30 30 31 32 32 33 34 35 35 36 36 36 37 37 38 38 39 40 41
26 27 28 28 29 30 30 29 29 29 30 30 30 30 30 30 31 32 32 33 33 34 34 35 35 37 38 38 39 39 38 38 39 40 41 41 41 42
29 30 31 31 31 32 32 32 32 33 33 33 33 32 32 32 33 34 35 36 36 36 37 38 38 39 40 40 41 41 41 41 41 42 42 43 43 44
32 33 33 34 33 34 34 34 35 35 35 35 34 34 34 34 35 36 37 38 38 39 39 40 41 41 42 43 43 44 43 44 44 44 45 45 46 46
34 35 36 36 35 35 36 37 37 37 37 37 37 37 37 37 37 38 39 41 41 42 42 42 43 43 44 45 45 46 47 47 48 48 48 48 49 48
36 37 37 37 37 37 38 39 39 39 39 39 39 39 40 40 40 41 42 43 44 45 45 46 47 47 48 48 48 49 50 51 51 52 52 51 51 51
38 39 39 38 39 39 40 40 41 41 42 42 42 42 42 42 43 44 46 47 47 48 50 51 51 51 52 52 52 53 53 54 55 55 55 55 55 54
41 41 41 41 41 41 42 42 43 43 43 43 44 44 45 45 46 48 49 50 51 52 54 55 55 55 55 55 55 55 56 57 58 59 59 59 58 58
42 42 42 43 43 44 44 44 45 45 46 46 47 48 49 50 51 52 53 53 54 56 56 57 58 58 58 58 58 58 59 59 59 60 60 60 60 59
44 44 45 45 46 46 47 47 47 48 49 50 51 52 53 54 55 55 56 56 57 58 59 60 60 61 61 60 59 59 60 59 60 60 60 60 60 59
46 46 47 47 48 49 49 49 50 51 53 54 55 56 57 57 57 57 58 58 59 59 60 60 60 60 60 60 59 58 58 58 58 59 58 59 59 58
48 49 49 50 51 51 52 53 54 55 56 57 58 59 59 59 59 60 60 60 60 60 59 58 58 59 59 59 59 57 57 57 57 57 57 57 57 56
51 51 52 52 53 54 55 56 57 58 59 60 61 61 61 61 61 61 61 61 60 59 58 57 56 56 56 56 57 57 56 56 55 55 55 55 55 54
53 53 54 55 56 57 58 59 61 62 62 63 63 62 62 62 62 61 61 59 58 57 56 56 55 54 54 53 53 53 54 54 53 52 51 52 53 53